Regional Weather Roundup
Issued by NWS

Home | Current Version | Previous Version | Text Only | Print | Product List | Glossary Off
Versions: 1 2 3 4 5 6 7 8 9 10 11 12 13 14 15 16 17 18 19 20 21 22 23 24 25 26 27 28 29 30 31 32 33 34 35 36 37 38 39 40 41 42 43 44 45 46 47 48 49 50

000
ASUS43 KLMK 010002
RWRKY
KENTUCKY REGIONAL WEATHER ROUNDUP
NATIONAL WEATHER SERVICE LOUISVILLE KY
800 PM EDT TUE SEP 30 2014

NOTE "FAIR" INDICATES FEW OR NO CLOUDS BELOW 12,000 FEET
WITH NO SIGNIFICANT WEATHER AND/OR OBSTRUCTIONS TO VISIBILITY.

KYZ001>023-026-027-061>063-070>075-010100-
WESTERN AND SOUTH CENTRAL KENTUCKY

CITY           SKY/WX    TMP DP  RH WIND       PRES   REMARKS
PADUCAH        CLEAR     69  58  67 CALM      29.87S
HENDERSON      NOT AVBL
OWENSBORO      PTCLDY    79  59  50 N7        29.90R
HOPKINSVILLE   CLEAR     76  53  44 NE3       29.89S
BOWLING GREEN  CLOUDY    80  52  37 CALM      29.90R
GLASGOW        CLEAR     69  55  62 CALM      29.91R
$$

KYZ024-025-028>034-038-045-046-053-010100-
NORTH CENTRAL KENTUCKY

CITY           SKY/WX    TMP DP  RH WIND       PRES   REMARKS
LOUISVILLE/SDF PTCLDY    77  59  53 N8        29.89S
LOUISVILLE/LOU CLEAR     77  59  53 NW5       29.90R
FORT KNOX      PTCLDY    69  60  73 NW6       29.89S
$$

KYZ035>037-039>044-047>052-055>060-089>105-010100-
NORTHEAST KENTUCKY

CITY           SKY/WX    TMP DP  RH WIND       PRES   REMARKS
LEXINGTON      CLEAR     74  58  57 N3        29.91S
COVINGTON      MOCLDY    66  57  72 N10       29.93R
FRANKFORT      CLEAR     71  59  65 N5        29.90R
$$

KYZ054-064>069-076>088-106>120-010100-
SOUTHEAST KENTUCKY

CITY           SKY/WX    TMP DP  RH WIND       PRES   REMARKS
JACKSON        CLEAR     72  54  53 CALM      29.93R
LONDON         CLEAR     70  58  65 CALM      29.93S
SOMERSET       NOT AVBL
MIDDLESBORO    CLEAR     66  58  74 W3        29.94S
MONTICELLO     CLEAR     64  57  78 CALM      29.94R
$$




USA.gov is the U.S. government's official web portal to all federal, state and local government web resources and services.